Location: Colle Santa Colomba
(42.0333°N, 12.5667°E)
Time: 03:14:07
(UTC+00:00)

COSMO-SKYMED 1 - Pass Details

Date: 25 October 2021
Orbit: 621 x 623 km, 97.9° (Epoch: 05 December)

Event Time Altitude Azimuth Distance (km) Brightness Sun altitude
Rises 16:33:07 0° 23° (NNE) 2,912 5.7 -4.5°
Reaches altitude 10° 16:35:34 10° 35° (NE) 2,000 4.7 -4.9°
Maximum altitude 16:39:21 29° 96° (E) 1,153 3.4 -5.6°
Drops below altitude 10° 16:43:07 10° 156° (SSE) 1,985 5.0 -6.3°
Sets 16:45:32 0° 168° (SSE) 2,886 6.0 -6.7°
